CW8254 Weather Reports


time (UTC)temp
C
wind
direction
speed
KPH
gust
KPH
rain 1hr
cm
rain 24hr
cm
rain mn
cm
humidity
%
barometer
mb
20260510113724 15 292 8.0 20.9 0.00 0.00 0.00 62 1018.1
20260510113225 15 338 11.3 20.9 0.00 0.00 0.00 61 1018.1
20260510112724 15 338 8.0 27.4 0.00 0.00 0.00 61 1018.1
20260510112224 15 338 14.5 27.4 0.00 0.00 0.00 61 1018.1
20260510111725 15 0 8.0 27.4 0.00 0.00 0.00 61 1018.1
20260510111227 15 0 14.5 25.7 0.00 0.00 0.00 60 1018.1
20260510110725 15 338 9.7 25.7 0.00 0.00 0.00 61 1018.1
20260510105725 15 338 11.3 27.4 0.00 0.00 0.00 61 1018.1
20260510105234 15 0 12.9 27.4 0.00 0.00 0.00 62 1018.1
20260510104724 15 315 14.5 19.3 0.00 0.00 0.00 62 1018.1
20260510104224 15 0 14.5 17.7 0.00 0.00 0.00 62 1018.1
20260510103725 15 0 9.7 19.3 0.00 0.00 0.00 62 1018.1
20260510103224 15 202 9.7 19.3 0.00 0.00 0.00 63 1018.1
20260510102725 15 338 9.7 17.7 0.00 0.00 0.00 62 1018.1
20260510102245 15 338 8.0 22.5 0.00 0.00 0.00 63 1019.1
20260510101743 15 180 6.4 27.4 0.00 0.00 0.00 63 1019.1
20260510101225 15 338 12.9 27.4 0.00 0.00 0.00 63 1019.1
20260510100237 15 0 17.7 22.5 0.00 0.00 0.00 66 1019.1
20260510095728 15 338 14.5 22.5 0.00 0.00 0.00 66 1019.1
20260510095225 15 0 14.5 17.7 0.00 0.00 0.00 66 1018.1
20260510094225 15 315 12.9 24.1 0.00 0.00 0.00 67 1018.1
20260510093724 14 0 9.7 24.1 0.00 0.00 0.00 68 1019.1
20260510093228 14 0 8.0 24.1 0.00 0.00 0.00 68 1019.1
20260510091746 13 0 19.3 20.9 0.00 0.00 0.00 69 1019.1
20260510090724 13 338 11.3 20.9 0.00 0.00 0.00 70 1019.1
20260510090224 13 315 9.7 19.3 0.00 0.00 0.00 71 1019.1
20260510085725 13 0 12.9 16.1 0.00 0.00 0.00 71 1019.1
20260510085225 13 0 9.7 20.9 0.00 0.00 0.00 71 1019.1
20260510084724 13 0 12.9 27.4 0.00 0.00 0.00 72 1019.1
20260510084224 13 315 14.5 27.4 0.00 0.00 0.00 73 1019.1
20260510083725 12 338 14.5 27.4 0.00 0.00 0.00 73 1019.1
20260510083225 12 338 9.7 27.4 0.00 0.00 0.00 74 1019.1
20260510082224 12 338 14.5 25.7 0.00 0.00 0.00 74 1019.1
20260510081724 12 0 8.0 25.7 0.00 0.00 0.00 75 1019.1
20260510081224 12 0 9.7 19.3 0.00 0.00 0.00 75 1019.1
20260510080224 12 0 11.3 20.9 0.00 0.00 0.00 75 1019.1
20260510075725 12 338 8.0 25.7 0.00 0.00 0.00 75 1019.1
20260510075234 12 338 11.3 25.7 0.00 0.00 0.00 75 1019.1
20260510074725 12 0 14.5 25.7 0.00 0.00 0.00 75 1019.1
20260510073726 12 0 6.4 19.3 0.00 0.00 0.00 75 1019.1
20260510073224 12 0 11.3 16.1 0.00 0.00 0.00 75 1019.1
20260510072725 12 0 11.3 17.7 0.00 0.00 0.00 75 1019.1
20260510071726 12 338 11.3 14.5 0.00 0.00 0.00 75 1019.1
20260510071224 12 315 9.7 14.5 0.00 0.00 0.00 75 1019.1
20260510070725 12 0 6.4 16.1 0.00 0.00 0.00 75 1019.1
20260510070225 12 0 8.0 16.1 0.00 0.00 0.00 75 1019.1
20260510065725 12 0 11.3 16.1 0.00 0.00 0.00 75 1019.1
20260510064225 12 0 9.7 12.9 0.00 0.00 0.00 76 1019.1
20260510063226 12 0 4.8 12.9 0.00 0.00 0.00 76 1019.1
20260510062224 11 338 4.8 16.1 0.00 0.00 0.00 77 1019.1
20260510061724 11 0 6.4 17.7 0.00 0.00 0.00 77 1019.1
20260510060224 11 0 9.7 16.1 0.00 0.00 0.00 77 1018.1
20260510055725 11 0 3.2 16.1 0.00 0.00 0.00 77 1018.1
20260510055225 11 158 8.0 16.1 0.00 0.00 0.00 77 1018.1
20260510054724 11 0 8.0 16.1 0.00 0.00 0.00 77 1018.1
20260510053725 11 0 4.8 20.9 0.00 0.00 0.00 78 1019.1
20260510052725 11 292 9.7 20.9 0.00 0.00 0.00 79 1019.1
20260510052224 10 0 11.3 20.9 0.00 0.00 0.00 79 1018.1
20260510051724 10 338 9.7 20.9 0.00 0.00 0.00 79 1018.1
20260510051225 10 202 12.9 19.3 0.00 0.00 0.00 79 1018.1
20260510045725 10 315 9.7 19.3 0.00 0.00 0.00 79 1018.1
20260510045224 10 0 9.7 17.7 0.00 0.00 0.00 79 1018.1
20260510044224 10 0 9.7 17.7 0.00 0.00 0.00 79 1018.1
20260510043724 10 0 6.4 19.3 0.00 0.00 0.00 79 1018.1
20260510043225 10 135 6.4 19.3 0.00 0.00 0.00 79 1018.1
20260510042725 10 0 12.9 19.3 0.00 0.00 0.00 79 1018.1
20260510042225 10 0 9.7 16.1 0.00 0.00 0.00 79 1019.1
20260510041726 10 0 8.0 20.9 0.00 0.00 0.00 79 1019.1
20260510041226 10 0 4.8 20.9 0.00 0.00 0.00 79 1019.1
20260510040224 10 338 16.1 19.3 0.00 0.00 0.00 79 1019.1
20260510035724 10 338 14.5 19.3 0.00 0.00 0.00 79 1019.1
20260510034225 10 338 6.4 14.5 0.00 0.00 0.00 78 1019.1
20260510033224 10 315 6.4 12.9 0.00 0.00 0.00 76 1019.1
20260510032225 10 338 6.4 17.7 0.00 0.00 0.00 76 1019.1
20260510031725 10 315 3.2 17.7 0.00 0.00 0.00 76 1019.1
20260510031225 10 338 4.8 17.7 0.00 0.00 0.00 76 1019.1
20260510030724 10 315 4.8 16.1 0.00 0.00 0.00 77 1019.1
20260510025724 10 338 6.4 16.1 0.00 0.00 0.00 76 1019.1
20260510025224 10 248 4.8 16.1 0.00 0.00 0.00 76 1019.1
20260510024725 10 0 6.4 16.1 0.00 0.00 0.00 75 1019.1
20260510024225 10 0 8.0 11.3 0.00 0.00 0.00 75 1019.1
20260510023724 10 338 6.4 11.3 0.00 0.00 0.00 75 1019.1
20260510022724 11 0 4.8 12.9 0.00 0.00 0.00 75 1019.1
20260510022226 11 338 8.0 12.9 0.00 0.00 0.00 75 1019.1
20260510021726 11 202 4.8 12.9 0.00 0.00 0.00 75 1019.1
20260510021225 11 0 4.8 14.5 0.00 0.00 0.00 75 1019.1
20260510020724 11 0 9.7 14.5 0.00 0.00 0.00 75 1019.1
20260510020225 11 0 6.4 14.5 0.00 0.00 0.00 74 1019.1
20260510015726 11 0 3.2 6.4 0.00 0.00 0.00 73 1019.1
20260510015224 11 315 3.2 6.4 0.00 0.00 0.00 74 1019.1
20260510014725 11 292 3.2 9.7 0.00 0.00 0.00 73 1019.1
20260510014224 11 315 3.2 9.7 0.00 0.00 0.00 73 1019.1
20260510013225 11 338 6.4 9.7 0.00 0.00 0.00 72 1019.1
20260510012225 11 248 1.6 9.7 0.00 0.00 0.00 72 1019.1
20260510011726 11 338 6.4 4.8 0.00 0.00 0.00 73 1019.1
20260510011225 11 315 3.2 6.4 0.00 0.00 0.00 73 1019.1
20260510010725 11 225 1.6 6.4 0.00 0.00 0.00 72 1019.1
20260510010224 11 180 1.6 9.7 0.00 0.00 0.00 72 1019.1
20260510005724 11 0 3.2 9.7 0.00 0.00 0.00 71 1019.1
20260510005225 11 0 1.6 9.7 0.00 0.00 0.00 71 1019.1
20260510004724 11 0 6.4 8.0 0.00 0.00 0.00 70 1019.1
20260510004224 11 180 1.6 8.0 0.00 0.00 0.00 69 1019.1
20260510003724 11 338 3.2 9.7 0.00 0.00 0.00 69 1019.1
20260510003225 11 338 4.8 11.3 0.00 0.00 0.00 69 1019.1
20260510002724 11 0 3.2 11.3 0.00 0.00 0.00 68 1019.1
20260510002225 11 0 4.8 11.3 0.00 0.00 0.00 69 1019.1
20260510001224 12 248 4.8 9.7 0.00 0.00 0.00 68 1019.1
20260510000725 12 338 6.4 9.7 0.00 0.00 0.00 67 1019.1
20260510000226 12 0 4.8 11.3 0.00 0.00 0.00 67 1019.1
20260509235742 12 0 3.2 12.9 0.00 0.00 0.00 67 1019.1
20260509234743 12 0 6.4 12.9 0.00 0.00 0.00 66 1019.1
20260509234224 12 0 4.8 12.9 0.00 0.00 0.00 66 1019.1
20260509233724 12 338 6.4 12.9 0.00 0.00 0.00 66 1019.1
20260509232729 12 0.0 16.1 0.00 0.00 0.00 65 1019.1
20260509232233 12 338 8.0 16.1 0.00 0.00 0.00 65 1019.1
20260509231724 12 0 9.7 16.1 0.00 0.00 0.00 65 1019.1
20260509231224 12 338 6.4 12.9 0.00 0.00 0.00 63 1019.1
20260509230725 12 0 6.4 12.9 0.00 0.00 0.00 63 1019.1
20260509230224 12 338 4.8 16.1 0.00 0.00 0.00 62 1019.1
20260509225725 12 0 9.7 16.1 0.00 0.00 0.00 61 1019.1
20260509225225 12 0 6.4 12.9 0.00 0.00 0.00 61 1019.1
20260509224724 12 338 4.8 19.3 0.00 0.00 0.00 61 1019.1
20260509224224 12 338 4.8 19.3 0.00 0.00 0.00 61 1019.1
20260509223725 12 0 6.4 16.1 0.00 0.00 0.00 60 1019.1
20260509223242 12 338 4.8 16.1 0.00 0.00 0.00 60 1019.1
20260509222726 12 0 8.0 14.5 0.00 0.00 0.00 59 1019.1
20260509222225 12 0 9.7 12.9 0.00 0.00 0.00 59 1020.1
20260509221724 12 338 9.7 17.7 0.00 0.00 0.00 59 1020.1
20260509220724 12 0 4.8 17.7 0.00 0.00 0.00 58 1019.1
20260509220224 12 338 6.4 12.9 0.00 0.00 0.00 57 1019.1
20260509215725 12 338 4.8 12.9 0.00 0.00 0.00 57 1019.1
20260509215224 12 0 11.3 11.3 0.00 0.00 0.00 56 1019.1
20260509214724 12 338 6.4 11.3 0.00 0.00 0.00 55 1019.1
20260509214225 12 0 1.6 12.9 0.00 0.00 0.00 55 1019.1
20260509213725 12 338 4.8 12.9 0.00 0.00 0.00 54 1019.1
20260509213224 12 0 4.8 12.9 0.00 0.00 0.00 54 1019.1
20260509212725 12 0 6.4 8.0 0.00 0.00 0.00 53 1019.1
20260509212225 12 315 6.4 9.7 0.00 0.00 0.00 52 1019.1
20260509211724 12 225 4.8 9.7 0.00 0.00 0.00 52 1019.1
20260509211239 12 0 4.8 9.7 0.00 0.00 0.00 51 1019.1
20260509210726 12 0 6.4 9.7 0.00 0.00 0.00 51 1019.1
20260509210226 12 0 6.4 8.0 0.00 0.00 0.00 51 1019.1
20260509205725 12 0 4.8 6.4 0.00 0.00 0.00 50 1019.1
20260509205225 12 0 3.2 9.7 0.00 0.00 0.00 50 1019.1
20260509204725 12 315 3.2 9.7 0.00 0.00 0.00 50 1019.1
20260509204224 12 202 3.2 9.7 0.00 0.00 0.00 50 1019.1
20260509203724 12 0 4.8 9.7 0.00 0.00 0.00 49 1019.1
20260509203225 13 135 3.2 9.7 0.00 0.00 0.00 49 1019.1
20260509202224 13 315 6.4 9.7 0.00 0.00 0.00 48 1019.1
20260509201726 13 0 6.4 9.7 0.00 0.00 0.00 48 1019.1
20260509200724 13 0 4.8 12.9 0.00 0.00 0.00 48 1019.1
20260509200224 13 0 4.8 9.7 0.00 0.00 0.00 47 1019.1
20260509195725 13 270 6.4 9.7 0.00 0.00 0.00 47 1019.1
20260509194724 13 0 4.8 9.7 0.00 0.00 0.00 46 1019.1
20260509194225 13 292 3.2 9.7 0.00 0.00 0.00 46 1019.1
20260509193224 14 0 4.8 9.7 0.00 0.00 0.00 45 1019.1
20260509192725 14 0 3.2 9.7 0.00 0.00 0.00 45 1019.1
20260509192225 14 158 1.6 12.9 0.00 0.00 0.00 45 1019.1
20260509191724 15 315 4.8 12.9 0.00 0.00 0.00 45 1019.1
20260509191224 15 338 6.4 12.9 0.00 0.00 0.00 45 1019.1
20260509190724 15 338 6.4 6.4 0.00 0.00 0.00 44 1019.1
20260509190227 15 202 3.2 6.4 0.00 0.00 0.00 44 1019.1
20260509185724 15 0 4.8 6.4 0.00 0.00 0.00 44 1019.1
20260509185239 15 0.0 6.4 0.00 0.00 0.00 44 1019.1
20260509184724 15 0 6.4 8.0 0.00 0.00 0.00 45 1019.1
20260509184224 16 0.0 8.0 0.00 0.00 0.00 45 1019.1
20260509183225 16 338 6.4 6.4 0.00 0.00 0.00 44 1019.1
20260509182724 16 0.0 8.0 0.00 0.00 0.00 44 1019.1
20260509182225 16 0 8.0 8.0 0.00 0.00 0.00 44 1019.1
20260509181725 16 135 9.7 11.3 0.00 0.00 0.00 44 1019.1
20260509181224 16 0 6.4 11.3 0.00 0.00 0.00 44 1019.1
20260509180726 17 0 4.8 11.3 0.00 0.00 0.00 44 1019.1
20260509180225 17 270 8.0 9.7 0.00 0.00 0.00 44 1019.1
20260509174724 17 0 6.4 9.7 0.00 0.00 0.00 44 1019.1
20260509174225 17 292 3.2 9.7 0.00 0.00 0.00 44 1019.1
20260509173225 18 338 3.2 16.1 0.00 0.00 0.00 43 1019.1
20260509172724 18 292 6.4 16.1 0.00 0.00 0.00 43 1019.1
20260509172224 18 292 9.7 16.1 0.00 0.00 0.00 43 1019.1
20260509171725 18 0 9.7 14.5 0.00 0.00 0.00 43 1019.1
20260509171224 18 0 6.4 14.5 0.00 0.00 0.00 43 1019.1
20260509170744 18 202 6.4 14.5 0.00 0.00 0.00 43 1019.1
20260509170224 18 0 9.7 14.5 0.00 0.00 0.00 43 1019.1
20260509165725 18 0 9.7 14.5 0.00 0.00 0.00 43 1019.1
20260509164724 18 0 9.7 9.7 0.00 0.00 0.00 44 1019.1
20260509163724 18 315 6.4 9.7 0.00 0.00 0.00 43 1019.1
20260509163225 19 270 4.8 9.7 0.00 0.00 0.00 44 1019.1
20260509162724 19 248 4.8 9.7 0.00 0.00 0.00 43 1019.1
20260509160224 20 180 6.4 12.9 0.00 0.00 0.00 43 1019.1
20260509155724 20 158 6.4 9.7 0.00 0.00 0.00 43 1019.1
20260509154725 20 338 3.2 11.3 0.00 0.00 0.00 43 1019.1
20260509154226 20 292 6.4 12.9 0.00 0.00 0.00 43 1019.1
20260509153734 20 0 6.4 12.9 0.00 0.00 0.00 44 1019.1
20260509153224 20 0 4.8 12.9 0.00 0.00 0.00 43 1019.1
20260509152724 20 315 3.2 12.9 0.00 0.00 0.00 44 1019.1
20260509152224 20 0 3.2 14.5 0.00 0.00 0.00 44 1019.1
20260509151725 20 158 4.8 16.1 0.00 0.00 0.00 43 1019.1
20260509151224 20 0 4.8 16.1 0.00 0.00 0.00 43 1019.1
20260509150225 20 180 4.8 14.5 0.00 0.00 0.00 43 1019.1
20260509145724 20 292 6.4 16.1 0.00 0.00 0.00 43 1019.1
20260509144724 20 248 3.2 16.1 0.00 0.00 0.00 43 1019.1
20260509144224 20 202 6.4 11.3 0.00 0.00 0.00 43 1019.1
20260509143225 20 338 4.8 12.9 0.00 0.00 0.00 44 1019.1
20260509142724 20 248 4.8 12.9 0.00 0.00 0.00 43 1019.1
20260509142224 20 0 6.4 14.5 0.00 0.00 0.00 44 1019.1
20260509141725 20 158 6.4 14.5 0.00 0.00 0.00 43 1019.1
20260509141224 20 0 6.4 12.9 0.00 0.00 0.00 44 1019.1
20260509140724 21 292 8.0 17.7 0.00 0.00 0.00 44 1019.1
20260509135224 20 338 9.7 17.7 0.00 0.00 0.00 44 1019.1
20260509134724 20 248 4.8 17.7 0.00 0.00 0.00 44 1019.1
20260509134225 20 292 9.7 17.7 0.00 0.00 0.00 45 1019.1
20260509133724 20 202 6.4 12.9 0.00 0.00 0.00 45 1019.1
20260509133226 20 0 6.4 16.1 0.00 0.00 0.00 45 1019.1
20260509132724 20 0 3.2 16.1 0.00 0.00 0.00 45 1019.1
20260509132225 20 0 4.8 12.9 0.00 0.00 0.00 45 1019.1
20260509131724 20 0 9.7 12.9 0.00 0.00 0.00 45 1019.1
20260509131224 20 0 9.7 12.9 0.00 0.00 0.00 45 1019.1
20260509130749 20 292 6.4 12.9 0.00 0.00 0.00 45 1019.1
20260509125725 20 0 6.4 14.5 0.00 0.00 0.00 45 1019.1
20260509124225 20 315 8.0 14.5 0.00 0.00 0.00 46 1019.1
20260509123725 20 0 8.0 14.5 0.00 0.00 0.00 46 1019.1
20260509123225 20 0 6.4 14.5 0.00 0.00 0.00 46 1019.1
20260509122724 20 0 6.4 14.5 0.00 0.00 0.00 46 1019.1
20260509122226 20 0 8.0 14.5 0.00 0.00 0.00 47 1019.1
20260509121725 20 0 9.7 14.5 0.00 0.00 0.00 47 1019.1
20260509121225 20 0 6.4 14.5 0.00 0.00 0.00 47 1019.1
20260509120725 20 0 8.0 14.5 0.00 0.00 0.00 47 1019.1
20260509120224 20 0 9.7 14.5 0.00 0.00 0.00 48 1019.1
20260509114725 20 0 6.4 17.7 0.00 0.00 0.00 50 1019.1
20260509114226 20 338 8.0 16.1 0.00 0.00 0.00 50 1019.1